TKJ38E LTAC-EHAM

Flight info

Callsign TKJ38E
Flight time N/A
Altitude 36000
Route YAVRU UL615 VADEN DCT OSTEX DCT DINEN DCT UTEKA DCT DONIV DCT TISAK DCT TONDO DCT SIRDU DCT ARSIN DCT DITIS DCT VARIK DCT KATCE DCT APEBE DCT NORKU
Aircraft A320/M-SDE3FGHIRWY/LB1

Departure

Time 2026-04-30 19:53
Airport Esenboğa International Airport (LTAC)

Arrival

Time N/A
Airport Amsterdam Airport Schiphol (EHAM)
Time Latitude Longitude Altitude Speed Heading
2026-04-30 19:39 40.11701 32.99499 3113 ft 0 kts 173°
2026-04-30 19:46 40.11726 32.99496 3113 ft 4 kts 174°
2026-04-30 19:46 40.11747 32.99493 3113 ft 4 kts 181°
2026-04-30 19:46 40.11772 32.99500 3113 ft 4 kts 219°
2026-04-30 19:47 40.11783 32.99522 3113 ft 1 kts 264°
2026-04-30 19:47 40.11783 32.99523 3113 ft 0 kts 265°
2026-04-30 19:49 40.11782 32.99504 3113 ft 7 kts 265°
2026-04-30 19:49 40.11756 32.99336 3113 ft 11 kts 256°
2026-04-30 19:49 40.11728 32.99239 3113 ft 12 kts 247°
2026-04-30 19:50 40.11690 32.99135 3113 ft 13 kts 240°
2026-04-30 19:50 40.11639 32.99029 3113 ft 10 kts 235°
2026-04-30 19:50 40.11631 32.98938 3113 ft 11 kts 294°
2026-04-30 19:50 40.11675 32.98857 3113 ft 11 kts 306°
2026-04-30 19:51 40.11724 32.98770 3112 ft 12 kts 306°
2026-04-30 19:51 40.11777 32.98674 3113 ft 14 kts 306°
2026-04-30 19:51 40.11834 32.98571 3113 ft 15 kts 306°
2026-04-30 19:51 40.11913 32.98508 3113 ft 14 kts
2026-04-30 19:52 40.11973 32.98552 3113 ft 0 kts 36°
2026-04-30 19:52 40.12034 32.98611 3114 ft 43 kts 36°
2026-04-30 19:52 40.12509 32.99064 3119 ft 122 kts 36°
2026-04-30 19:52 40.13367 32.99884 3152 ft 179 kts 37°
2026-04-30 19:53 40.14403 33.00895 3794 ft 192 kts 39°
2026-04-30 19:53 40.15457 33.02014 4623 ft 201 kts 39°
2026-04-30 19:53 40.16571 33.03208 5355 ft 213 kts 38°
2026-04-30 19:53 40.17749 33.04463 6100 ft 224 kts 38°
2026-04-30 19:54 40.18992 33.05777 6823 ft 235 kts 37°
2026-04-30 19:54 40.20292 33.07126 7516 ft 238 kts 33°
2026-04-30 19:54 40.21792 33.07821 8252 ft 226 kts 354°
2026-04-30 19:54 40.23228 33.07159 8704 ft 226 kts 317°
2026-04-30 19:55 40.24347 33.05628 8956 ft 243 kts 306°
2026-04-30 19:55 40.25434 33.03794 9256 ft 267 kts 303°
2026-04-30 19:55 40.26575 33.01776 9775 ft 281 kts 303°
2026-04-30 19:55 40.27762 32.99689 10306 ft 294 kts 303°
2026-04-30 19:56 40.29027 32.97501 10515 ft 317 kts 304°
2026-04-30 19:56 40.30440 32.95104 10711 ft 338 kts 305°
2026-04-30 19:56 40.31896 32.92677 11240 ft 346 kts 305°
2026-04-30 19:56 40.33400 32.90195 11886 ft 349 kts 305°
2026-04-30 19:57 40.34691 32.87505 12514 ft 349 kts 292°
2026-04-30 19:57 40.35476 32.84505 13209 ft 347 kts 281°
2026-04-30 19:57 40.36052 32.81420 13928 ft 349 kts 281°
2026-04-30 19:57 40.36631 32.78313 14533 ft 352 kts 281°
2026-04-30 19:58 40.37214 32.75179 15123 ft 355 kts 281°
2026-04-30 19:58 40.37800 32.72022 15692 ft 358 kts 281°
2026-04-30 19:58 40.38390 32.68841 16247 ft 360 kts 281°
2026-04-30 19:58 40.38987 32.65632 16826 ft 363 kts 281°
2026-04-30 19:59 40.39592 32.62399 17408 ft 366 kts 281°
2026-04-30 19:59 40.39995 32.60246 17810 ft 368 kts 281°
2026-04-30 19:59 40.41416 32.52563 19079 ft 374 kts 281°
2026-04-30 20:00 40.41822 32.50353 19426 ft 376 kts 281°
2026-04-30 20:00 40.42435 32.47017 19962 ft 378 kts 281°
2026-04-30 20:00 40.43057 32.43641 20480 ft 381 kts 281°
2026-04-30 20:00 40.43681 32.40246 20973 ft 384 kts 281°
2026-04-30 20:01 40.44939 32.33393 21889 ft 389 kts 282°
2026-04-30 20:01 40.45573 32.29929 22349 ft 392 kts 282°
2026-04-30 20:01 40.46206 32.26449 22849 ft 392 kts 281°
2026-04-30 20:02 40.47544 32.19464 23743 ft 397 kts 287°
2026-04-30 20:02 40.48539 32.16063 24098 ft 400 kts 289°
2026-04-30 20:03 40.50584 32.09224 24838 ft 404 kts 289°
2026-04-30 20:03 40.51604 32.05777 25224 ft 405 kts 289°
2026-04-30 20:03 40.52623 32.02312 25580 ft 407 kts 289°
2026-04-30 20:03 40.53648 31.98839 25966 ft 408 kts 289°
2026-04-30 20:04 40.54672 31.95359 26376 ft 409 kts 289°
2026-04-30 20:04 40.55697 31.91869 26755 ft 410 kts 289°
2026-04-30 20:04 40.56729 31.88357 27131 ft 412 kts 289°
2026-04-30 20:05 40.58784 31.81275 27845 ft 416 kts 288°
2026-04-30 20:05 40.59733 31.77665 28190 ft 418 kts 286°
2026-04-30 20:05 40.61495 31.70408 29248 ft 414 kts 285°
2026-04-30 20:06 40.62349 31.66813 29827 ft 411 kts 285°
2026-04-30 20:06 40.63205 31.63234 30316 ft 409 kts 285°
2026-04-30 20:06 40.64066 31.59672 30750 ft 408 kts 285°
2026-04-30 20:06 40.64933 31.56127 31178 ft 406 kts 285°
2026-04-30 20:07 40.65807 31.52577 31620 ft 405 kts 285°
2026-04-30 20:07 40.66677 31.49060 32059 ft 404 kts 285°
2026-04-30 20:07 40.68402 31.42050 32955 ft 401 kts 285°
2026-04-30 20:08 40.69250 31.38566 33448 ft 398 kts 285°
2026-04-30 20:08 40.70091 31.35099 33929 ft 396 kts 285°
2026-04-30 20:08 40.70931 31.31644 34338 ft 394 kts 285°
2026-04-30 20:08 40.71767 31.28209 34697 ft 393 kts 285°
2026-04-30 20:09 40.72602 31.24777 35023 ft 393 kts 285°
2026-04-30 20:09 40.73438 31.21350 35344 ft 393 kts 285°
2026-04-30 20:09 40.75105 31.14494 35954 ft 392 kts 285°
2026-04-30 20:10 40.76772 31.07562 36063 ft 402 kts 285°
2026-04-30 20:10 40.77621 31.04015 36071 ft 409 kts 285°
2026-04-30 20:11 40.80239 30.93127 36067 ft 418 kts 285°
2026-04-30 20:11 40.81995 30.85802 36072 ft 419 kts 285°
2026-04-30 20:12 40.84613 30.74795 36076 ft 419 kts 285°
2026-04-30 20:13 40.86356 30.67450 36078 ft 419 kts 285°
2026-04-30 20:13 40.87888 30.60026 36087 ft 418 kts 281°
2026-04-30 20:14 40.89159 30.52524 36111 ft 418 kts 280°
2026-04-30 20:14 40.90417 30.45019 36108 ft 417 kts 281°
2026-04-30 20:15 40.91721 30.37551 36113 ft 417 kts 281°
2026-04-30 20:15 40.93053 30.30085 36107 ft 417 kts 281°
2026-04-30 20:16 40.94384 30.22612 36113 ft 417 kts 281°
2026-04-30 20:16 40.95695 30.15148 36123 ft 416 kts 281°
2026-04-30 20:17 40.96981 30.07743 36119 ft 415 kts 281°
2026-04-30 20:17 40.98266 30.00294 36119 ft 415 kts 281°
2026-04-30 20:18 40.99553 29.92844 36112 ft 415 kts 281°
2026-04-30 20:18 41.00819 29.85405 36118 ft 414 kts 280°
2026-04-30 20:19 41.02075 29.77953 36111 ft 414 kts 280°
2026-04-30 20:19 41.03322 29.70514 36108 ft 414 kts 280°
2026-04-30 20:20 41.04573 29.63058 36105 ft 414 kts 280°
2026-04-30 20:20 41.05823 29.55610 36109 ft 414 kts 280°
2026-04-30 20:21 41.07078 29.48166 36107 ft 414 kts 280°
2026-04-30 20:21 41.08329 29.40712 36105 ft 414 kts 280°
2026-04-30 20:22 41.09571 29.33258 36102 ft 414 kts 280°
2026-04-30 20:22 41.10807 29.25811 36101 ft 414 kts 280°
2026-04-30 20:23 41.12035 29.18349 36115 ft 413 kts 280°
2026-04-30 20:23 41.14211 29.11278 36124 ft 421 kts 298°
2026-04-30 20:24 41.17472 29.04790 36122 ft 422 kts 299°
2026-04-30 20:24 41.20717 28.98313 36136 ft 421 kts 299°
2026-04-30 20:25 41.25569 28.88580 36168 ft 421 kts 298°
2026-04-30 20:26 41.30411 28.78853 36156 ft 420 kts 299°
2026-04-30 20:26 41.35240 28.69124 36172 ft 420 kts 298°
2026-04-30 20:27 41.41641 28.56162 36161 ft 418 kts 298°
2026-04-30 20:28 41.48024 28.43188 36171 ft 418 kts 298°
2026-04-30 20:30 41.55969 28.26966 36162 ft 417 kts 298°
2026-04-30 20:31 41.65439 28.07512 36169 ft 416 kts 298°
2026-04-30 20:32 41.73307 27.91282 36170 ft 416 kts 298°
2026-04-30 20:33 41.78012 27.81523 36176 ft 416 kts 298°
2026-04-30 20:34 41.82709 27.71740 36190 ft 416 kts 297°
2026-04-30 20:35 41.87387 27.61967 36190 ft 416 kts 297°
2026-04-30 20:35 41.92078 27.52149 36195 ft 416 kts 297°
2026-04-30 20:36 41.95202 27.45592 36209 ft 417 kts 297°
2026-04-30 20:37 41.99881 27.35733 36214 ft 418 kts 297°
2026-04-30 20:37 42.03004 27.29135 36217 ft 418 kts 297°
2026-04-30 20:38 42.06124 27.22520 36211 ft 418 kts 296°
2026-04-30 20:38 42.08313 27.16782 36239 ft 414 kts 291°
2026-04-30 20:39 42.12097 27.06306 36225 ft 414 kts 291°
2026-04-30 20:40 42.15875 26.95828 36232 ft 414 kts 291°
2026-04-30 20:40 42.18385 26.88833 36244 ft 414 kts 291°
2026-04-30 20:41 42.22137 26.78330 36244 ft 414 kts 291°
2026-04-30 20:41 42.24638 26.71327 36249 ft 414 kts 291°
2026-04-30 20:42 42.27134 26.64320 36272 ft 414 kts 291°
2026-04-30 20:43 42.30860 26.53793 36264 ft 414 kts 291°
2026-04-30 20:43 42.33344 26.46771 36261 ft 414 kts 291°
2026-04-30 20:44 42.37043 26.36257 36263 ft 414 kts 291°
2026-04-30 20:45 42.41990 26.22139 36262 ft 415 kts 291°
2026-04-30 20:45 42.44464 26.15058 36271 ft 416 kts 291°
2026-04-30 20:46 42.49388 26.00909 36277 ft 416 kts 291°
2026-04-30 20:47 42.53466 25.90427 36270 ft 419 kts 296°
2026-04-30 20:48 42.57901 25.80192 36298 ft 420 kts 296°
2026-04-30 20:48 42.60769 25.73346 36289 ft 420 kts 295°
2026-04-30 20:49 42.63616 25.66411 36289 ft 421 kts 295°
2026-04-30 20:50 42.67886 25.55985 36301 ft 421 kts 295°
2026-04-30 20:50 42.70749 25.49021 36315 ft 422 kts 296°
2026-04-30 20:51 42.73617 25.42041 36305 ft 423 kts 295°
2026-04-30 20:51 42.77911 25.31532 36301 ft 424 kts 295°
2026-04-30 20:52 42.80766 25.24504 36307 ft 424 kts 295°
2026-04-30 20:53 42.85054 25.13964 36330 ft 424 kts 295°
2026-04-30 20:53 42.87903 25.06915 36332 ft 424 kts 295°
2026-04-30 20:54 42.92175 24.96349 36332 ft 424 kts 295°
2026-04-30 20:55 42.96440 24.85750 36331 ft 425 kts 295°
2026-04-30 20:55 42.99283 24.78660 36331 ft 426 kts 295°
2026-04-30 20:56 43.03541 24.67990 36358 ft 426 kts 295°
2026-04-30 20:57 43.07801 24.57283 36344 ft 428 kts 296°
2026-04-30 20:57 43.10650 24.50106 36340 ft 429 kts 296°
2026-04-30 20:58 43.14920 24.39316 36345 ft 430 kts 296°
2026-04-30 20:58 43.17771 24.32094 36360 ft 431 kts 296°
2026-04-30 20:59 43.22029 24.21274 36358 ft 432 kts 296°
2026-04-30 21:00 43.27724 24.06727 36363 ft 433 kts 296°
2026-04-30 21:01 43.31985 23.95789 36362 ft 433 kts 296°
2026-04-30 21:02 43.36243 23.84818 36362 ft 434 kts 296°
2026-04-30 21:02 43.39073 23.77499 36362 ft 434 kts 296°
2026-04-30 21:03 43.41906 23.70163 36362 ft 434 kts 296°
2026-04-30 21:03 43.44741 23.62814 36357 ft 435 kts 296°
2026-04-30 21:04 43.47569 23.55449 36358 ft 435 kts 296°
2026-04-30 21:04 43.51802 23.44383 36366 ft 436 kts 296°
2026-04-30 21:05 43.54625 23.36971 36359 ft 437 kts 296°
2026-04-30 21:05 43.57447 23.29554 36353 ft 437 kts 296°
2026-04-30 21:06 43.60269 23.22114 36358 ft 438 kts 296°
2026-04-30 21:06 43.63096 23.14652 36357 ft 438 kts 296°
2026-04-30 21:07 43.65914 23.07196 36354 ft 438 kts 296°
2026-04-30 21:07 43.68728 22.99720 36358 ft 438 kts 296°
2026-04-30 21:08 43.71536 22.92237 36356 ft 438 kts 296°
2026-04-30 21:08 43.74321 22.84798 36357 ft 439 kts 296°
2026-04-30 21:09 43.77125 22.77294 36356 ft 439 kts 296°
2026-04-30 21:09 43.79928 22.69774 36356 ft 439 kts 296°
2026-04-30 21:10 43.82725 22.62246 36355 ft 439 kts 296°
2026-04-30 21:10 43.85516 22.54713 36353 ft 439 kts 296°
2026-04-30 21:11 43.88301 22.47169 36353 ft 439 kts 296°
2026-04-30 21:11 43.91214 22.39721 36354 ft 440 kts 304°
2026-04-30 21:12 43.95293 22.33391 36365 ft 441 kts 313°
2026-04-30 21:12 43.99567 22.27276 36362 ft 442 kts 313°
2026-04-30 21:13 44.03842 22.21137 36355 ft 442 kts 313°
2026-04-30 21:13 44.08117 22.14980 36356 ft 442 kts 312°
2026-04-30 21:14 44.12388 22.08816 36355 ft 442 kts 312°
2026-04-30 21:14 44.16650 22.02647 36349 ft 442 kts 313°
2026-04-30 21:15 44.20918 21.96454 36351 ft 443 kts 313°
2026-04-30 21:15 44.25182 21.90256 36348 ft 443 kts 313°
2026-04-30 21:16 44.29446 21.84039 36339 ft 444 kts 313°
2026-04-30 21:16 44.33712 21.77816 36337 ft 444 kts 313°
2026-04-30 21:17 44.37983 21.71570 36326 ft 444 kts 313°
2026-04-30 21:17 44.42246 21.65310 36329 ft 444 kts 313°
2026-04-30 21:18 44.46515 21.59034 36328 ft 445 kts 313°
2026-04-30 21:18 44.50061 21.53816 36343 ft 445 kts 313°
2026-04-30 21:19 44.54328 21.47529 36313 ft 446 kts 313°
2026-04-30 21:19 44.58587 21.41226 36311 ft 446 kts 313°
2026-04-30 21:20 44.62859 21.34883 36321 ft 447 kts 313°
2026-04-30 21:20 44.67130 21.28532 36320 ft 447 kts 313°
2026-04-30 21:21 44.71403 21.22166 36317 ft 448 kts 313°
2026-04-30 21:22 44.77866 21.12666 36321 ft 448 kts 315°
2026-04-30 21:23 44.86810 21.00505 36332 ft 448 kts 315°
2026-04-30 21:23 44.93496 20.91282 36330 ft 448 kts 315°
2026-04-30 21:24 44.97928 20.85099 36331 ft 448 kts 315°
2026-04-30 21:24 45.02370 20.78890 36332 ft 448 kts 315°
2026-04-30 21:25 45.09030 20.69592 36331 ft 449 kts 316°
2026-04-30 21:26 45.15688 20.60258 36329 ft 450 kts 315°
2026-04-30 21:27 45.22347 20.50871 36331 ft 450 kts 315°
2026-04-30 21:27 45.26790 20.44603 36324 ft 450 kts 316°
2026-04-30 21:28 45.33452 20.35178 36331 ft 451 kts 315°
2026-04-30 21:29 45.40115 20.25718 36335 ft 452 kts 316°
2026-04-30 21:30 45.51378 20.10105 36342 ft 452 kts 317°
2026-04-30 21:31 45.62676 19.94534 36358 ft 453 kts 317°
2026-04-30 21:32 45.69456 19.85111 36356 ft 454 kts 317°
2026-04-30 21:32 45.73983 19.78809 36356 ft 454 kts 317°
2026-04-30 21:33 45.80777 19.69320 36364 ft 454 kts 317°
2026-04-30 21:34 45.85292 19.62979 36367 ft 454 kts 317°
2026-04-30 21:34 45.92073 19.53462 36372 ft 454 kts 317°
2026-04-30 21:35 45.96589 19.47102 36378 ft 455 kts 317°
2026-04-30 21:35 46.01098 19.40728 36374 ft 455 kts 317°
2026-04-30 21:36 46.05590 19.34307 36361 ft 456 kts 316°
2026-04-30 21:37 46.14028 19.20616 36373 ft 457 kts 313°
2026-04-30 21:37 46.18203 19.13691 36393 ft 457 kts 314°
2026-04-30 21:38 46.22418 19.06818 36362 ft 457 kts 314°
2026-04-30 21:38 46.26647 18.99944 36376 ft 458 kts 314°
2026-04-30 21:39 46.30869 18.93036 36380 ft 458 kts 314°
2026-04-30 21:39 46.35067 18.86138 36385 ft 458 kts 314°
2026-04-30 21:40 46.39301 18.79159 36385 ft 458 kts 314°
2026-04-30 21:40 46.43512 18.72206 36372 ft 459 kts 314°
2026-04-30 21:41 46.47720 18.65247 36381 ft 459 kts 314°
2026-04-30 21:41 46.51901 18.58302 36381 ft 459 kts 314°
2026-04-30 21:42 46.56101 18.51311 36383 ft 459 kts 314°
2026-04-30 21:42 46.60304 18.44310 36368 ft 460 kts 314°
2026-04-30 21:43 46.64509 18.37279 36367 ft 460 kts 314°
2026-04-30 21:43 46.68706 18.30235 36372 ft 461 kts 314°
2026-04-30 21:44 46.72902 18.23173 36378 ft 461 kts 314°
2026-04-30 21:44 46.77098 18.16101 36363 ft 461 kts 315°
2026-04-30 21:45 46.81290 18.09025 36365 ft 461 kts 314°
2026-04-30 21:45 46.85481 18.01920 36373 ft 462 kts 314°
2026-04-30 21:46 46.89670 17.94805 36374 ft 462 kts 314°
2026-04-30 21:46 46.93856 17.87679 36381 ft 462 kts 314°
2026-04-30 21:47 46.98039 17.80533 36365 ft 462 kts 315°
2026-04-30 21:47 47.02218 17.73372 36376 ft 462 kts 315°
2026-04-30 21:48 47.06396 17.66208 36386 ft 462 kts 315°
2026-04-30 21:48 47.10571 17.59027 36388 ft 463 kts 315°
2026-04-30 21:49 47.14737 17.51826 36364 ft 463 kts 315°
2026-04-30 21:49 47.18902 17.44618 36372 ft 463 kts 315°
2026-04-30 21:50 47.23062 17.37392 36378 ft 463 kts 315°
2026-04-30 21:50 47.27208 17.30127 36381 ft 463 kts 314°
2026-04-30 21:51 47.31250 17.22725 36370 ft 464 kts 313°
2026-04-30 21:51 47.35254 17.15244 36382 ft 464 kts 313°
2026-04-30 21:52 47.39273 17.07794 36387 ft 464 kts 314°
2026-04-30 21:52 47.43286 17.00390 36398 ft 464 kts 314°
2026-04-30 21:53 47.47315 16.92923 36398 ft 465 kts 314°
2026-04-30 21:53 47.51337 16.85437 36372 ft 465 kts 314°
2026-04-30 21:54 47.55353 16.77943 36388 ft 465 kts 315°
2026-04-30 21:54 47.59979 16.71496 36395 ft 454 kts 327°
2026-04-30 21:55 47.64908 16.65633 36405 ft 454 kts 327°
2026-04-30 21:55 47.69826 16.59750 36410 ft 454 kts 327°
2026-04-30 21:56 47.74754 16.53837 36420 ft 454 kts 327°
2026-04-30 21:56 47.79673 16.47938 36422 ft 454 kts 327°
2026-04-30 21:57 47.84593 16.42024 36433 ft 454 kts 327°
2026-04-30 21:57 47.89502 16.36088 36435 ft 455 kts 327°
2026-04-30 21:58 47.94414 16.30150 36409 ft 455 kts 327°
2026-04-30 21:58 47.98492 16.25211 36429 ft 454 kts 327°
2026-04-30 21:59 48.03390 16.19247 36433 ft 453 kts 327°
2026-04-30 22:00 48.10715 16.10305 36439 ft 453 kts 327°
2026-04-30 22:00 48.18039 16.01357 36437 ft 452 kts 327°
2026-04-30 22:01 48.22907 15.95384 36428 ft 452 kts 328°
2026-04-30 22:01 48.27761 15.89386 36432 ft 452 kts 328°
2026-04-30 22:02 48.32610 15.83391 36434 ft 451 kts 328°
2026-04-30 22:02 48.37454 15.77410 36434 ft 451 kts 328°
2026-04-30 22:03 48.42305 15.71396 36435 ft 451 kts 328°
2026-04-30 22:03 48.47147 15.65365 36407 ft 451 kts 328°
2026-04-30 22:04 48.51987 15.59333 36424 ft 451 kts 328°
2026-04-30 22:05 48.59221 15.50299 36430 ft 451 kts 328°
2026-04-30 22:05 48.64050 15.44242 36429 ft 451 kts 328°
2026-04-30 22:06 48.68875 15.38171 36384 ft 451 kts 328°
2026-04-30 22:06 48.76098 15.29051 36418 ft 450 kts 328°
2026-04-30 22:07 48.80905 15.22968 36431 ft 450 kts 328°
2026-04-30 22:07 48.85706 15.16870 36434 ft 450 kts 328°
2026-04-30 22:08 48.90393 15.10528 36438 ft 459 kts 320°
2026-04-30 22:08 48.94466 15.02954 36406 ft 462 kts 317°
2026-04-30 22:09 48.98516 14.95340 36433 ft 461 kts 317°
2026-04-30 22:09 49.02544 14.87753 36446 ft 461 kts 317°
2026-04-30 22:10 49.06575 14.80159 36449 ft 460 kts 317°
2026-04-30 22:10 49.10601 14.72564 36445 ft 460 kts 317°
2026-04-30 22:11 49.16621 14.61155 36435 ft 459 kts 317°
2026-04-30 22:12 49.20619 14.53538 36444 ft 459 kts 317°
2026-04-30 22:12 49.24610 14.45910 36450 ft 459 kts 317°
2026-04-30 22:13 49.28595 14.38286 36453 ft 458 kts 317°
2026-04-30 22:13 49.32544 14.30706 36419 ft 458 kts 316°
2026-04-30 22:14 49.36540 14.23006 36435 ft 458 kts 316°
2026-04-30 22:14 49.40505 14.15331 36449 ft 458 kts 316°
2026-04-30 22:15 49.44464 14.07655 36451 ft 458 kts 316°
2026-04-30 22:15 49.48395 14.00029 36458 ft 458 kts 316°
2026-04-30 22:16 49.52344 13.92348 36439 ft 458 kts 315°
2026-04-30 22:17 49.60215 13.76943 36448 ft 457 kts 315°
2026-04-30 22:17 49.66107 13.65358 36450 ft 457 kts 315°
2026-04-30 22:18 49.71977 13.53739 36428 ft 457 kts 315°
2026-04-30 22:19 49.77835 13.42104 36441 ft 457 kts 315°
2026-04-30 22:20 49.83700 13.30426 36447 ft 457 kts 315°
2026-04-30 22:20 49.89544 13.18734 36452 ft 457 kts 315°
2026-04-30 22:21 49.93431 13.10918 36458 ft 457 kts 315°
2026-04-30 22:21 49.97311 13.03092 36454 ft 457 kts 315°
2026-04-30 22:22 50.01192 12.95256 36452 ft 457 kts 315°
2026-04-30 22:22 50.05049 12.87453 36400 ft 457 kts 314°
2026-04-30 22:23 50.08947 12.79539 36419 ft 457 kts 314°
2026-04-30 22:23 50.12776 12.71705 36434 ft 458 kts 314°
2026-04-30 22:24 50.16635 12.63812 36444 ft 457 kts 314°
2026-04-30 22:24 50.20489 12.55915 36465 ft 457 kts 314°
2026-04-30 22:25 50.24337 12.47997 36430 ft 457 kts 313°
2026-04-30 22:25 50.28173 12.40079 36451 ft 457 kts 313°
2026-04-30 22:26 50.33948 12.28217 36476 ft 456 kts 314°
2026-04-30 22:27 50.37818 12.20344 36472 ft 456 kts 314°
2026-04-30 22:27 50.43605 12.08494 36420 ft 456 kts 313°
2026-04-30 22:28 50.49364 11.96588 36439 ft 457 kts 313°
2026-04-30 22:29 50.57039 11.80655 36455 ft 457 kts 313°
2026-04-30 22:31 50.70414 11.52708 36448 ft 457 kts 312°
2026-04-30 22:32 50.79945 11.32580 36456 ft 457 kts 311°
2026-04-30 22:33 50.89437 11.12376 36434 ft 458 kts 311°
2026-04-30 22:35 50.98910 10.92090 36432 ft 458 kts 311°
2026-04-30 22:36 51.08318 10.71747 36432 ft 458 kts 310°
2026-04-30 22:37 51.15851 10.55377 36460 ft 458 kts 310°
2026-04-30 22:38 51.23344 10.38965 36444 ft 458 kts 309°
2026-04-30 22:39 51.28148 10.25702 36447 ft 462 kts 300°
2026-04-30 22:40 51.36443 9.99800 36436 ft 462 kts 300°
2026-04-30 22:41 51.43728 9.76872 36447 ft 461 kts 300°
2026-04-30 22:43 51.52385 9.49325 36442 ft 460 kts 299°
2026-04-30 22:44 51.58104 9.30908 36444 ft 460 kts 298°
2026-04-30 22:45 51.66640 9.03206 36431 ft 460 kts 298°
2026-04-30 22:47 51.75076 8.75407 36413 ft 459 kts 297°
2026-04-30 22:48 51.80152 8.56521 36413 ft 460 kts 295°
2026-04-30 22:49 51.87776 8.28040 36407 ft 460 kts 295°
2026-04-30 22:51 51.95362 7.99450 36400 ft 461 kts 295°
2026-04-30 22:52 51.99117 7.85086 36402 ft 461 kts 294°
2026-04-30 22:53 52.04116 7.65901 36401 ft 461 kts 294°
2026-04-30 22:53 52.07846 7.51478 36409 ft 461 kts 294°
2026-04-30 22:55 52.14013 7.27459 36380 ft 461 kts 293°
2026-04-30 22:56 52.18918 7.08111 36375 ft 462 kts 294°
2026-04-30 22:56 52.23292 6.94200 36376 ft 459 kts 309°
2026-04-30 22:57 52.27329 6.86143 36361 ft 459 kts 310°
2026-04-30 22:58 52.35419 6.69900 36365 ft 461 kts 310°
2026-04-30 22:59 52.46538 6.44513 35916 ft 452 kts 288°